Gwinner, ND

9:50 PM CDT on August 18, 2017 (GMT -0500)
Gwinner-melroe

Weather History for KGWR - February, 2013

Change the Weather History Date:

Tuesday, February 19, 2013

  Actual Average (KP67) Record (KP67)
Temperature  
Mean Temperature -5 °F -  
Max Temperature 3 °F 28 °F 39 °F (1997)
Min Temperature -13 °F 12 °F 3 °F (1997)
Degree Days  
Heating Degree Days 70    
Moisture  
Dew Point -13 °F    
Average Humidity 68    
Maximum Humidity 77    
Minimum Humidity 60    
Precipitation  
Precipitation 0.00 in - - ()
Sea Level Pressure  
Sea Level Pressure 30.32 in    
Wind  
Wind Speed 17 mph (NNW)    
Max Wind Speed 26 mph    
Max Gust Speed 34 mph    
Visibility 10 miles    
Events      
Averages and records for this station are not official NWS values.
T = Trace of Precipitation, MM = Missing Value Source: NWS Daily Summary

Daily Weather History Graph

Daily Weather History Graph

Search for Another Location

Airport or City:

Trip Planner

Search our weather history database for the weather conditions in past years. The results will help you decide how hot, cold, wet, or windy it might be!

Date:

Astronomy

Feb. 19, 2013 Rise Set
Actual Time 7:26 AM CST 6:02 PM CST
Civil Twilight 6:56 AM CST 6:33 PM CST
Nautical Twilight 6:21 AM CST 7:08 PM CST
Astronomical Twilight 5:46 AM CST 7:43 PM CST
Moon 12:24 PM CST 3:10 AM CST
Length of Visible Light 11h 37m
Length of Day
10h 36m
Waxing Gibbous, 67% of the Moon is Illuminated
Feb 19
Waxing Gibbous
Feb 25
Full
Mar 4
Last Quarter
Mar 11
New
Mar 19
First Quarter

Hourly Weather History & Observations

Time (CST) Temp. Windchill Dew Point Humidity Pressure Visibility Wind Dir Wind Speed Gust Speed Precip Events Conditions
12:15 AM 1.4 °F -19.9 °F -5.8 °F 72% 30.14 in 3.0 mi NNW 19.6 mph 34.5 mph 0.00 in   Overcast
12:35 AM 1.4 °F -22.7 °F -5.8 °F 72% 30.14 in 5.0 mi NNW 26.5 mph - 0.00 in   Overcast
12:55 AM -0.4 °F -23.8 °F -7.6 °F 72% 30.15 in 7.0 mi NNW 23.0 mph 28.8 mph 0.00 in   Overcast
1:15 AM -0.4 °F -22.3 °F -7.6 °F 72% 30.17 in 10.0 mi NNW 19.6 mph 28.8 mph 0.00 in   Overcast
1:35 AM -0.4 °F -22.3 °F -9.4 °F 66% 30.17 in 10.0 mi NNW 19.6 mph - 0.00 in   Overcast
1:55 AM -4.0 °F -28.1 °F - N/A% 30.18 in 10.0 mi NNW 21.9 mph 26.5 mph 0.00 in   Unknown
2:15 AM -4.0 °F -27.0 °F -11.2 °F 71% 30.18 in 10.0 mi NNW 19.6 mph 26.5 mph 0.00 in   Overcast
2:35 AM -4.0 °F -27.0 °F -13.0 °F 65% 30.19 in 10.0 mi NNW 19.6 mph 24.2 mph 0.00 in   Overcast
2:55 AM -5.8 °F -28.2 °F -13.0 °F 71% 30.19 in 10.0 mi NNW 17.3 mph - 0.00 in   Overcast
3:15 AM -5.8 °F -28.2 °F -13.0 °F 71% 30.21 in 10.0 mi NNW 17.3 mph - 0.00 in   Overcast
3:35 AM -5.8 °F -29.4 °F -14.8 °F 65% 30.21 in 10.0 mi NNW 19.6 mph - 0.00 in   Overcast
3:55 AM -5.8 °F -29.4 °F -14.8 °F 65% 30.21 in 10.0 mi NNW 19.6 mph - 0.00 in   Overcast
4:15 AM -7.6 °F -31.7 °F -14.8 °F 71% 30.22 in 10.0 mi NW 19.6 mph - 0.00 in   Overcast
4:35 AM -7.6 °F -29.8 °F -14.8 °F 71% 30.22 in 10.0 mi NNW 16.1 mph - 0.00 in   Overcast
4:55 AM -7.6 °F -30.5 °F -16.6 °F 65% 30.23 in 10.0 mi NW 17.3 mph - 0.00 in   Overcast
5:15 AM -7.6 °F -29.8 °F -16.6 °F 65% 30.24 in 10.0 mi NW 16.1 mph - 0.00 in   Unknown
5:35 AM -9.4 °F -32.1 °F -16.6 °F 71% 30.24 in 10.0 mi NNW 16.1 mph - 0.00 in   Unknown
5:55 AM -9.4 °F -32.8 °F -18.4 °F 65% 30.26 in 10.0 mi NNW 17.3 mph - 0.00 in   Overcast
6:15 AM -9.4 °F -32.1 °F -18.4 °F 65% 30.27 in 10.0 mi NW 16.1 mph - 0.00 in   Unknown
6:35 AM -9.4 °F -32.1 °F -18.4 °F 65% 30.28 in 10.0 mi NW 16.1 mph - 0.00 in   Unknown
6:55 AM -9.4 °F -32.1 °F -18.4 °F 65% 30.28 in 10.0 mi NW 16.1 mph - 0.00 in   Overcast
7:15 AM -9.4 °F -30.6 °F -18.4 °F 65% 30.29 in 10.0 mi NW 13.8 mph - 0.00 in   Unknown
7:35 AM -9.4 °F -30.6 °F -18.4 °F 65% 30.30 in 10.0 mi NW 13.8 mph - 0.00 in   Unknown
7:55 AM -9.4 °F -30.6 °F -18.4 °F 65% 30.30 in 10.0 mi NW 13.8 mph - 0.00 in   Scattered Clouds
8:15 AM -9.4 °F -31.4 °F -18.4 °F 65% 30.31 in 10.0 mi NW 15.0 mph - 0.00 in   Unknown
8:35 AM -9.4 °F -31.4 °F -18.4 °F 65% 30.31 in 10.0 mi NW 15.0 mph - 0.00 in   Unknown
8:55 AM -9.4 °F -30.6 °F -18.4 °F 65% 30.32 in 10.0 mi NW 13.8 mph - 0.00 in   Partly Cloudy
9:15 AM -9.4 °F -32.1 °F -18.4 °F 65% 30.33 in 10.0 mi NW 16.1 mph - 0.00 in   Unknown
9:35 AM -9.4 °F -32.1 °F -18.4 °F 65% 30.34 in 10.0 mi NW 16.1 mph - 0.00 in   Scattered Clouds
9:55 AM -7.6 °F -29.8 °F -16.6 °F 65% 30.34 in 10.0 mi NW 16.1 mph - 0.00 in   Clear
10:15 AM -7.6 °F -28.3 °F -16.6 °F 65% 30.34 in 10.0 mi NNW 13.8 mph - 0.00 in   Clear
10:35 AM -5.8 °F -28.2 °F -14.8 °F 65% 30.34 in 10.0 mi NNW 17.3 mph 21.9 mph 0.00 in   Clear
10:55 AM -5.8 °F -27.5 °F -14.8 °F 65% 30.35 in 10.0 mi NNW 16.1 mph - 0.00 in   Unknown
11:15 AM -4.0 °F -25.8 °F -13.0 °F 65% 30.35 in 10.0 mi NNW 17.3 mph - 0.00 in   Unknown
11:35 AM -2.2 °F -24.7 °F -13.0 °F 60% 30.36 in 10.0 mi NNW 19.6 mph - 0.00 in   Clear
12:15 PM -0.4 °F -22.3 °F -11.2 °F 60% 30.36 in 10.0 mi North 19.6 mph 24.2 mph 0.00 in   Clear
12:35 PM -0.4 °F -21.2 °F - N/A% 30.37 in 10.0 mi NNW 17.3 mph - 0.00 in   Clear
12:55 PM -0.4 °F -21.7 °F - N/A% 30.36 in 10.0 mi North 18.4 mph - 0.00 in   Unknown
1:15 PM -0.4 °F -21.2 °F -9.4 °F 66% 30.35 in 10.0 mi North 17.3 mph - 0.00 in   Clear
1:35 PM -0.4 °F -20.5 °F -9.4 °F 66% 30.35 in 10.0 mi North 16.1 mph - 0.00 in   Clear
1:55 PM 1.4 °F -17.6 °F -9.4 °F 61% 30.36 in 10.0 mi North 15.0 mph - 0.00 in   Unknown
2:15 PM 1.4 °F -19.4 °F -7.6 °F 66% 30.36 in 10.0 mi NNW 18.4 mph - 0.00 in   Clear
2:35 PM 1.4 °F -16.9 °F -7.6 °F 66% 30.36 in 10.0 mi NNW 13.8 mph - 0.00 in   Unknown
2:55 PM 1.4 °F -16.1 °F -7.6 °F 66% 30.37 in 10.0 mi NNW 12.7 mph - 0.00 in   Unknown
3:15 PM 1.4 °F -17.6 °F -7.6 °F 66% 30.38 in 10.0 mi NNW 15.0 mph - 0.00 in   Clear
3:35 PM 3.2 °F -14.6 °F -7.6 °F 61% 30.38 in 10.0 mi NNW 13.8 mph - 0.00 in   Unknown
3:55 PM 3.2 °F -13.9 °F -7.6 °F 61% 30.38 in 10.0 mi North 12.7 mph - 0.00 in   Unknown
4:15 PM 3.2 °F -11.3 °F -7.6 °F 61% 30.38 in 10.0 mi North 9.2 mph - 0.00 in   Clear
4:35 PM 3.2 °F -13.1 °F -5.8 °F 66% 30.39 in 10.0 mi NNW 11.5 mph - 0.00 in   Unknown
4:55 PM 1.4 °F -15.3 °F -7.6 °F 66% 30.38 in 10.0 mi North 11.5 mph - 0.00 in   Unknown
5:15 PM 1.4 °F -13.5 °F -7.6 °F 66% 30.38 in 10.0 mi NNW 9.2 mph - 0.00 in   Clear
5:35 PM 1.4 °F -13.5 °F -7.6 °F 66% 30.37 in 10.0 mi North 9.2 mph - 0.00 in   Unknown
6:35 PM -4.0 °F -19.0 °F -11.2 °F 71% 30.39 in 10.0 mi NNW 8.1 mph - 0.00 in   Unknown
6:55 PM -5.8 °F -19.9 °F -13.0 °F 71% 30.39 in 10.0 mi North 6.9 mph - 0.00 in   Clear
7:15 PM -7.6 °F -23.4 °F -14.8 °F 71% 30.39 in 10.0 mi North 8.1 mph - 0.00 in   Clear
7:55 PM -7.6 °F -20.6 °F -14.8 °F 71% 30.41 in 10.0 mi NNW 5.8 mph - 0.00 in   Clear
8:15 PM -7.6 °F -22.1 °F -13.0 °F 77% 30.42 in 10.0 mi NNW 6.9 mph - 0.00 in   Mostly Cloudy
8:35 PM -9.4 °F -25.6 °F -16.6 °F 71% 30.41 in 10.0 mi NNE 8.1 mph - 0.00 in   Overcast
9:15 PM -13.0 °F -27.0 °F -18.4 °F 77% 30.43 in 10.0 mi NNE 5.8 mph - 0.00 in   Overcast
9:35 PM -11.2 °F -26.4 °F -16.6 °F 77% 30.42 in 10.0 mi North 6.9 mph - 0.00 in   Scattered Clouds
9:55 PM -11.2 °F -26.4 °F -16.6 °F 77% 30.43 in 10.0 mi North 6.9 mph - 0.00 in   Clear
10:15 PM - - - N/A% 30.42 in 10.0 mi North 8.1 mph - 0.00 in   Clear
10:35 PM -13.0 °F -28.6 °F -18.4 °F 77% 30.44 in 10.0 mi North 6.9 mph - 0.00 in   Clear
10:55 PM -9.4 °F -24.3 °F -16.6 °F 71% 30.45 in 10.0 mi North 6.9 mph - 0.00 in   Clear
11:15 PM - - - N/A% 30.45 in 10.0 mi North 8.1 mph - 0.00 in   Partly Cloudy
11:35 PM -13.0 °F -30.0 °F -18.4 °F 77% 30.45 in 10.0 mi North 8.1 mph - 0.00 in   Unknown
11:55 PM -13.0 °F -27.0 °F -18.4 °F 77% 30.45 in 10.0 mi North 5.8 mph - 0.00 in   Partly Cloudy